STARLINK-2697 (48474 NORAD) Tracking and Keplerian Element Data

This shows tracking and keplerian element data for the satellite.

Feedback or suggestion? Click here.




ElementValue
Catalog48474
NameSTARLINK-2697
Epoch Orbit359
Epoch Day214.91667824
Epoch Year2021
RAAN172.5474
Inclination53.03
Eccentricity0.0002045
Argument of Perigee80.474
Mean Anonmoly238.4413
Mean Motion15.06409825
Decay Rate5.73E-06
L11 48474U 21040AY 21214.91667824 .00000573 00000-0 57392-4 0 9992
L22 48474 53.0300 172.5474 0002045 80.4740 238.4413 15.06409825 3596

Live tracking and technical data element details for STARLINK-2697 (NORAD 48474). STARLINK-2697 can be tracked NOW for your location showing map with azimuth and elevation plus other details from your city location.

Track the satellite on the map from your city or location and see movement details for azimuth, elevation, latitude, longitude, range, height, and movement on the map or in text.







IsCatalogInMostPopularTable: catalog: 48474, numindb: 28
Update: records affected: 1



GetName: 48474 STARLINK-2697

Hit Count: updated at: Tue, 03 Aug 2021 21:45:20 GMT